JLY7351 MPTO-SBEG

Flight info

Callsign JLY7351
Flight time 3h 13m
Altitude 33000
Route TBG UP527 DADKA/N0472F350 UP527 UKEDA
Aircraft B738/M-SDE2E3FGHIRWXY/LB1

Departure

Time 2026-05-07 00:30
Airport Tocumen International Airport (MPTO)

Arrival

Time 2026-05-07 03:44
Airport Eduardo Gomes International Airport (SBEG)
Time Latitude Longitude Altitude Speed Heading
2026-05-07 00:00 9.06762 -79.38486 45 ft 0 kts 315°
2026-05-07 00:18 9.06756 -79.38480 45 ft 4 kts 316°
2026-05-07 00:18 9.06736 -79.38462 41 ft 4 kts 317°
2026-05-07 00:18 9.06719 -79.38443 45 ft 4 kts 282°
2026-05-07 00:19 9.06718 -79.38434 42 ft 0 kts 210°
2026-05-07 00:22 9.06683 -79.38454 44 ft 13 kts 210°
2026-05-07 00:22 9.06595 -79.38505 44 ft 15 kts 210°
2026-05-07 00:23 9.06508 -79.38556 43 ft 14 kts 209°
2026-05-07 00:23 9.06425 -79.38604 43 ft 13 kts 213°
2026-05-07 00:23 9.06352 -79.38655 43 ft 12 kts 207°
2026-05-07 00:23 9.06272 -79.38682 42 ft 12 kts 200°
2026-05-07 00:24 9.06196 -79.38716 42 ft 12 kts 208°
2026-05-07 00:24 9.06127 -79.38760 42 ft 13 kts 212°
2026-05-07 00:24 9.06052 -79.38806 41 ft 12 kts 208°
2026-05-07 00:24 9.05976 -79.38846 41 ft 13 kts 207°
2026-05-07 00:25 9.05891 -79.38892 40 ft 15 kts 210°
2026-05-07 00:25 9.05797 -79.38947 40 ft 15 kts 210°
2026-05-07 00:25 9.05705 -79.39000 38 ft 15 kts 209°
2026-05-07 00:25 9.05620 -79.39016 39 ft 11 kts 143°
2026-05-07 00:26 9.05562 -79.38993 38 ft 10 kts 209°
2026-05-07 00:26 9.05504 -79.39028 38 ft 10 kts 210°
2026-05-07 00:26 9.05447 -79.39062 38 ft 9 kts 210°
2026-05-07 00:26 9.05391 -79.39094 38 ft 9 kts 208°
2026-05-07 00:27 9.05335 -79.39124 37 ft 9 kts 208°
2026-05-07 00:27 9.05279 -79.39159 37 ft 10 kts 212°
2026-05-07 00:27 9.05210 -79.39200 37 ft 12 kts 207°
2026-05-07 00:27 9.05133 -79.39241 37 ft 12 kts 207°
2026-05-07 00:28 9.05057 -79.39281 36 ft 12 kts 207°
2026-05-07 00:28 9.04985 -79.39323 36 ft 12 kts 210°
2026-05-07 00:28 9.04915 -79.39363 36 ft 11 kts 210°
2026-05-07 00:28 9.04842 -79.39373 36 ft 11 kts 146°
2026-05-07 00:29 9.04799 -79.39310 36 ft 11 kts 120°
2026-05-07 00:29 9.04780 -79.39265 35 ft 5 kts 84°
2026-05-07 00:30 9.05914 -79.38607 44 ft 157 kts 29°
2026-05-07 00:30 9.06982 -79.38020 393 ft 185 kts 28°
2026-05-07 00:30 9.08141 -79.37428 1270 ft 185 kts 31°
2026-05-07 00:30 9.08973 -79.36403 1934 ft 205 kts 72°
2026-05-07 00:31 9.08943 -79.34895 2120 ft 229 kts 101°
2026-05-07 00:31 9.08572 -79.33278 2495 ft 241 kts 101°
2026-05-07 00:31 9.08215 -79.31573 2858 ft 256 kts 99°
2026-05-07 00:31 9.07874 -79.29791 3557 ft 258 kts 99°
2026-05-07 00:32 9.07561 -79.28006 4319 ft 258 kts 98°
2026-05-07 00:32 9.07265 -79.26204 5031 ft 260 kts 98°
2026-05-07 00:32 9.06976 -79.24392 5779 ft 261 kts 98°
2026-05-07 00:32 9.06689 -79.22569 6463 ft 264 kts 98°
2026-05-07 00:33 9.06231 -79.20785 6847 ft 265 kts 118°
2026-05-07 00:33 9.04996 -79.19385 7000 ft 275 kts 146°
2026-05-07 00:33 9.03191 -79.18741 7120 ft 281 kts 176°
2026-05-07 00:33 9.01238 -79.19032 7648 ft 290 kts 199°
2026-05-07 00:34 8.99370 -79.19852 8267 ft 295 kts 203°
2026-05-07 00:34 8.97508 -79.20747 8923 ft 298 kts 204°
2026-05-07 00:34 8.95630 -79.21657 9568 ft 301 kts 203°
2026-05-07 00:34 8.93728 -79.22569 10154 ft 305 kts 202°
2026-05-07 00:35 8.91805 -79.23481 10785 ft 305 kts 203°
2026-05-07 00:35 8.89874 -79.24389 11388 ft 308 kts 202°
2026-05-07 00:35 8.87916 -79.25304 11972 ft 311 kts 202°
2026-05-07 00:35 8.85944 -79.26224 12556 ft 314 kts 202°
2026-05-07 00:36 8.83951 -79.27153 13157 ft 317 kts 202°
2026-05-07 00:36 8.81931 -79.28092 13384 ft 333 kts 202°
2026-05-07 00:36 8.79769 -79.29097 13528 ft 350 kts 202°
2026-05-07 00:36 8.77505 -79.30151 13661 ft 367 kts 202°
2026-05-07 00:37 8.75138 -79.31254 13773 ft 382 kts 202°
2026-05-07 00:37 8.72681 -79.32401 13881 ft 395 kts 202°
2026-05-07 00:37 8.70155 -79.33580 14120 ft 404 kts 202°
2026-05-07 00:37 8.67591 -79.34777 14503 ft 407 kts 202°
2026-05-07 00:38 8.65016 -79.35972 14939 ft 408 kts 201°
2026-05-07 00:38 8.62294 -79.36715 15288 ft 405 kts 180°
2026-05-07 00:38 8.59522 -79.36422 15693 ft 401 kts 161°
2026-05-07 00:38 8.56966 -79.35345 16098 ft 398 kts 146°
2026-05-07 00:39 8.55501 -79.34247 16367 ft 396 kts 136°
2026-05-07 00:39 8.53461 -79.32371 16777 ft 398 kts 135°
2026-05-07 00:39 8.51440 -79.30447 17144 ft 400 kts 134°
2026-05-07 00:39 8.49415 -79.28501 17521 ft 403 kts 134°
2026-05-07 00:40 8.47374 -79.26544 17899 ft 405 kts 134°
2026-05-07 00:40 8.45316 -79.24585 18258 ft 408 kts 134°
2026-05-07 00:40 8.43243 -79.22621 18577 ft 410 kts 134°
2026-05-07 00:40 8.41153 -79.20651 18889 ft 412 kts 134°
2026-05-07 00:41 8.39046 -79.18671 19182 ft 415 kts 134°
2026-05-07 00:41 8.36928 -79.16684 19494 ft 417 kts 134°
2026-05-07 00:41 8.34797 -79.14687 19793 ft 419 kts 134°
2026-05-07 00:41 8.32656 -79.12681 20100 ft 421 kts 134°
2026-05-07 00:42 8.30501 -79.10663 20383 ft 423 kts 134°
2026-05-07 00:42 8.28333 -79.08633 20668 ft 426 kts 134°
2026-05-07 00:42 8.26160 -79.06598 20951 ft 428 kts 134°
2026-05-07 00:42 8.23970 -79.04547 21201 ft 430 kts 134°
2026-05-07 00:43 8.21768 -79.02486 21435 ft 433 kts 134°
2026-05-07 00:43 8.19557 -79.00416 21694 ft 435 kts 134°
2026-05-07 00:43 8.17330 -78.98332 21977 ft 436 kts 134°
2026-05-07 00:43 8.15101 -78.96246 22223 ft 438 kts 134°
2026-05-07 00:44 8.12859 -78.94148 22457 ft 441 kts 134°
2026-05-07 00:44 8.10608 -78.92043 22683 ft 443 kts 134°
2026-05-07 00:44 8.08345 -78.89926 22912 ft 444 kts 134°
2026-05-07 00:44 8.06069 -78.87798 23140 ft 446 kts 134°
2026-05-07 00:45 8.03786 -78.85663 23351 ft 448 kts 134°
2026-05-07 00:45 8.01497 -78.83523 23542 ft 450 kts 134°
2026-05-07 00:45 7.99193 -78.81370 23733 ft 452 kts 134°
2026-05-07 00:45 7.96881 -78.79209 23923 ft 453 kts 134°
2026-05-07 00:46 7.94599 -78.77077 24106 ft 454 kts 134°
2026-05-07 00:46 7.92278 -78.74909 24284 ft 455 kts 135°
2026-05-07 00:46 7.89952 -78.72736 24458 ft 457 kts 135°
2026-05-07 00:46 7.87618 -78.70556 24632 ft 458 kts 135°
2026-05-07 00:47 7.85276 -78.68369 24806 ft 459 kts 135°
2026-05-07 00:47 7.82928 -78.66176 24958 ft 461 kts 135°
2026-05-07 00:47 7.80571 -78.63976 25107 ft 463 kts 135°
2026-05-07 00:47 7.78206 -78.61768 25248 ft 465 kts 135°
2026-05-07 00:48 7.75829 -78.59550 25410 ft 466 kts 135°
2026-05-07 00:48 7.73448 -78.57329 25584 ft 467 kts 135°
2026-05-07 00:48 7.71060 -78.55102 25735 ft 468 kts 135°
2026-05-07 00:48 7.68663 -78.52866 25882 ft 470 kts 135°
2026-05-07 00:49 7.66264 -78.50628 26025 ft 471 kts 135°
2026-05-07 00:49 7.63850 -78.48378 26178 ft 472 kts 135°
2026-05-07 00:49 7.61430 -78.46121 26328 ft 474 kts 135°
2026-05-07 00:49 7.59008 -78.43863 26472 ft 475 kts 135°
2026-05-07 00:50 7.56579 -78.41599 26608 ft 476 kts 135°
2026-05-07 00:50 7.54142 -78.39328 26747 ft 477 kts 135°
2026-05-07 00:50 7.51693 -78.37047 26889 ft 479 kts 135°
2026-05-07 00:50 7.49247 -78.34768 27017 ft 480 kts 135°
2026-05-07 00:51 7.46793 -78.32482 27154 ft 481 kts 135°
2026-05-07 00:51 7.44332 -78.30191 27286 ft 482 kts 135°
2026-05-07 00:51 7.41871 -78.27899 27504 ft 480 kts 135°
2026-05-07 00:51 7.39431 -78.25628 27879 ft 476 kts 136°
2026-05-07 00:52 7.37003 -78.23368 28085 ft 476 kts 136°
2026-05-07 00:52 7.34566 -78.21100 28207 ft 477 kts 136°
2026-05-07 00:52 7.32125 -78.18827 28309 ft 479 kts 136°
2026-05-07 00:52 7.29678 -78.16551 28448 ft 479 kts 136°
2026-05-07 00:53 7.27230 -78.14273 28656 ft 478 kts 136°
2026-05-07 00:53 7.24786 -78.12000 28889 ft 477 kts 136°
2026-05-07 00:53 7.22349 -78.09734 29094 ft 477 kts 136°
2026-05-07 00:53 7.19911 -78.07466 29264 ft 477 kts 136°
2026-05-07 00:54 7.17475 -78.05200 29455 ft 477 kts 136°
2026-05-07 00:54 7.15037 -78.02933 29670 ft 476 kts 136°
2026-05-07 00:54 7.12599 -78.00668 29883 ft 476 kts 136°
2026-05-07 00:54 7.10168 -77.98406 30064 ft 476 kts 136°
2026-05-07 00:55 7.07757 -77.96130 30227 ft 475 kts 135°
2026-05-07 00:55 7.05386 -77.93865 30376 ft 476 kts 135°
2026-05-07 00:55 7.02992 -77.91567 30512 ft 476 kts 135°
2026-05-07 00:55 7.00598 -77.89267 30701 ft 476 kts 135°
2026-05-07 00:56 6.98203 -77.86967 30904 ft 475 kts 135°
2026-05-07 00:56 6.95818 -77.84681 31089 ft 474 kts 135°
2026-05-07 00:56 6.93425 -77.82392 31244 ft 474 kts 135°
2026-05-07 00:56 6.91035 -77.80106 31428 ft 474 kts 135°
2026-05-07 00:57 6.88646 -77.77824 31622 ft 473 kts 135°
2026-05-07 00:57 6.86257 -77.75543 31818 ft 473 kts 135°
2026-05-07 00:57 6.83871 -77.73264 31994 ft 473 kts 135°
2026-05-07 00:57 6.81488 -77.70988 32164 ft 472 kts 135°
2026-05-07 00:58 6.79104 -77.68712 32361 ft 472 kts 136°
2026-05-07 00:58 6.76724 -77.66440 32557 ft 471 kts 136°
2026-05-07 00:58 6.74347 -77.64172 32736 ft 471 kts 136°
2026-05-07 00:58 6.71969 -77.61902 32893 ft 471 kts 136°
2026-05-07 00:59 6.64821 -77.55081 32906 ft 470 kts 136°
2026-05-07 01:00 6.60098 -77.50577 32904 ft 465 kts 136°
2026-05-07 01:00 6.55429 -77.46126 32906 ft 461 kts 136°
2026-05-07 01:01 6.50806 -77.41718 32920 ft 462 kts 136°
2026-05-07 01:01 6.46117 -77.37248 32916 ft 467 kts 136°
2026-05-07 01:02 6.41384 -77.32738 32912 ft 470 kts 136°
2026-05-07 01:02 6.36586 -77.28168 32911 ft 473 kts 136°
2026-05-07 01:03 6.31802 -77.23613 32896 ft 474 kts 136°
2026-05-07 01:03 6.27043 -77.19080 32899 ft 474 kts 136°
2026-05-07 01:04 6.22261 -77.14530 32892 ft 473 kts 136°
2026-05-07 01:04 6.17492 -77.09993 32898 ft 471 kts 136°
2026-05-07 01:05 6.12742 -77.05474 32891 ft 469 kts 136°
2026-05-07 01:05 6.08007 -77.00971 32885 ft 468 kts 136°
2026-05-07 01:06 6.03289 -76.96485 32880 ft 466 kts 136°
2026-05-07 01:06 5.98585 -76.92014 32880 ft 465 kts 136°
2026-05-07 01:07 5.93888 -76.87550 32890 ft 464 kts 136°
2026-05-07 01:07 5.89198 -76.83093 32880 ft 464 kts 136°
2026-05-07 01:08 5.84538 -76.78666 32888 ft 465 kts 136°
2026-05-07 01:08 5.79828 -76.74193 32887 ft 466 kts 136°
2026-05-07 01:09 5.75114 -76.69717 32875 ft 467 kts 136°
2026-05-07 01:09 5.70384 -76.65226 32889 ft 468 kts 136°
2026-05-07 01:10 5.65647 -76.60723 32890 ft 469 kts 136°
2026-05-07 01:10 5.60942 -76.56239 32885 ft 470 kts 136°
2026-05-07 01:11 5.56194 -76.51712 32883 ft 471 kts 136°
2026-05-07 01:11 5.51446 -76.47187 32929 ft 471 kts 136°
2026-05-07 01:12 5.46698 -76.42664 32923 ft 471 kts 136°
2026-05-07 01:12 5.41941 -76.38134 32929 ft 471 kts 136°
2026-05-07 01:13 5.37178 -76.33599 32978 ft 471 kts 136°
2026-05-07 01:13 5.32430 -76.29079 32974 ft 471 kts 136°
2026-05-07 01:14 5.27678 -76.24556 32979 ft 470 kts 136°
2026-05-07 01:14 5.22933 -76.20041 33017 ft 470 kts 136°
2026-05-07 01:15 5.18193 -76.15531 33025 ft 469 kts 136°
2026-05-07 01:15 5.13488 -76.11058 33006 ft 469 kts 136°
2026-05-07 01:16 5.08752 -76.06555 33042 ft 469 kts 136°
2026-05-07 01:16 5.04024 -76.02059 33040 ft 468 kts 136°
2026-05-07 01:17 4.99301 -75.97570 33029 ft 468 kts 136°
2026-05-07 01:17 4.94582 -75.93085 33021 ft 467 kts 136°
2026-05-07 01:18 4.89864 -75.88603 33080 ft 467 kts 136°
2026-05-07 01:18 4.85151 -75.84125 33104 ft 467 kts 136°
2026-05-07 01:19 4.80442 -75.79654 33103 ft 466 kts 136°
2026-05-07 01:19 4.75739 -75.75189 33111 ft 464 kts 135°
2026-05-07 01:20 4.71104 -75.70788 33101 ft 455 kts 135°
2026-05-07 01:20 4.66502 -75.66420 33088 ft 456 kts 135°
2026-05-07 01:21 4.61890 -75.62041 33083 ft 457 kts 135°
2026-05-07 01:21 4.57267 -75.57655 33107 ft 458 kts 135°
2026-05-07 01:22 4.52631 -75.53255 33097 ft 460 kts 135°
2026-05-07 01:22 4.47982 -75.48832 33118 ft 462 kts 133°
2026-05-07 01:23 4.44190 -75.43645 33415 ft 460 kts 116°
2026-05-07 01:23 4.42891 -75.40746 33776 ft 456 kts 112°
2026-05-07 01:23 4.41694 -75.37798 33808 ft 459 kts 112°
2026-05-07 01:24 4.39305 -75.31824 33986 ft 462 kts 112°
2026-05-07 01:24 4.38105 -75.28848 34245 ft 460 kts 112°
2026-05-07 01:24 4.36918 -75.25927 34428 ft 458 kts 112°
2026-05-07 01:24 4.35707 -75.22966 34563 ft 459 kts 113°
2026-05-07 01:25 4.34490 -75.20000 34682 ft 460 kts 113°
2026-05-07 01:25 4.33271 -75.17036 34853 ft 460 kts 113°
2026-05-07 01:25 4.32056 -75.14084 35023 ft 458 kts 112°
2026-05-07 01:26 4.30020 -75.09141 35053 ft 458 kts 112°
2026-05-07 01:26 4.27582 -75.03219 35050 ft 462 kts 113°
2026-05-07 01:27 4.24724 -74.96276 35072 ft 466 kts 113°
2026-05-07 01:27 4.22662 -74.91266 35077 ft 468 kts 113°
2026-05-07 01:28 4.20172 -74.85219 35063 ft 470 kts 113°
2026-05-07 01:28 4.17680 -74.79167 35070 ft 469 kts 113°
2026-05-07 01:29 4.15193 -74.73132 35103 ft 468 kts 113°
2026-05-07 01:29 4.12714 -74.67115 35102 ft 466 kts 113°
2026-05-07 01:30 4.10243 -74.61121 35187 ft 465 kts 113°
2026-05-07 01:30 4.07779 -74.55144 35196 ft 463 kts 113°
2026-05-07 01:31 4.05323 -74.49188 35264 ft 462 kts 113°
2026-05-07 01:31 4.02877 -74.43257 35268 ft 460 kts 113°
2026-05-07 01:32 4.00432 -74.37331 35286 ft 461 kts 113°
2026-05-07 01:32 3.97983 -74.31397 35357 ft 461 kts 112°
2026-05-07 01:33 3.95529 -74.25450 35340 ft 462 kts 112°
2026-05-07 01:33 3.93049 -74.19507 35367 ft 463 kts 114°
2026-05-07 01:34 3.90313 -74.13668 35352 ft 464 kts 116°
2026-05-07 01:34 3.87499 -74.07854 35362 ft 464 kts 116°
2026-05-07 01:35 3.84709 -74.02020 35330 ft 465 kts 116°
2026-05-07 01:35 3.81941 -73.96174 35329 ft 465 kts 115°
2026-05-07 01:36 3.79181 -73.90323 35251 ft 464 kts 115°
2026-05-07 01:36 3.76426 -73.84485 35255 ft 463 kts 115°
2026-05-07 01:37 3.73678 -73.78664 35209 ft 462 kts 115°
2026-05-07 01:37 3.70952 -73.72894 35219 ft 461 kts 115°
2026-05-07 01:38 3.68214 -73.67098 35216 ft 460 kts 115°
2026-05-07 01:38 3.65484 -73.61321 35187 ft 459 kts 115°
2026-05-07 01:39 3.62753 -73.55543 35182 ft 458 kts 115°
2026-05-07 01:39 3.60027 -73.49777 35159 ft 458 kts 115°
2026-05-07 01:40 3.57300 -73.44009 35169 ft 459 kts 115°
2026-05-07 01:40 3.54566 -73.38228 35153 ft 459 kts 115°
2026-05-07 01:41 3.51830 -73.32446 35157 ft 460 kts 115°
2026-05-07 01:41 3.49087 -73.26648 35152 ft 461 kts 115°
2026-05-07 01:42 3.46342 -73.20846 35147 ft 462 kts 115°
2026-05-07 01:42 3.43590 -73.15031 35139 ft 463 kts 115°
2026-05-07 01:43 3.40836 -73.09213 35144 ft 463 kts 115°
2026-05-07 01:43 3.38075 -73.03381 35130 ft 464 kts 115°
2026-05-07 01:44 3.35311 -72.97544 35126 ft 464 kts 115°
2026-05-07 01:44 3.32546 -72.91707 35102 ft 464 kts 115°
2026-05-07 01:45 3.29797 -72.85904 35115 ft 464 kts 115°
2026-05-07 01:45 3.27031 -72.80065 35107 ft 464 kts 115°
2026-05-07 01:46 3.24267 -72.74231 35098 ft 464 kts 115°
2026-05-07 01:46 3.21501 -72.68394 35103 ft 464 kts 115°
2026-05-07 01:47 3.18737 -72.62563 35085 ft 464 kts 115°
2026-05-07 01:47 3.15972 -72.56728 35086 ft 463 kts 115°
2026-05-07 01:48 3.13183 -72.50912 35067 ft 463 kts 116°
2026-05-07 01:48 3.10215 -72.45195 35075 ft 463 kts 118°
2026-05-07 01:49 3.07224 -72.39537 35078 ft 463 kts 117°
2026-05-07 01:49 3.04230 -72.33827 35044 ft 463 kts 117°
2026-05-07 01:50 3.01255 -72.28113 35051 ft 463 kts 117°
2026-05-07 01:50 2.98286 -72.22399 35046 ft 463 kts 117°
2026-05-07 01:51 2.95317 -72.16687 35031 ft 463 kts 117°
2026-05-07 01:51 2.92342 -72.10966 35032 ft 463 kts 117°
2026-05-07 01:52 2.89371 -72.05252 35035 ft 463 kts 117°
2026-05-07 01:52 2.86397 -71.99535 35035 ft 463 kts 117°
2026-05-07 01:53 2.83425 -71.93823 35029 ft 463 kts 117°
2026-05-07 01:53 2.80450 -71.88106 35025 ft 463 kts 117°
2026-05-07 01:54 2.77470 -71.82379 35037 ft 464 kts 117°
2026-05-07 01:54 2.74491 -71.76655 35035 ft 464 kts 117°
2026-05-07 01:55 2.71510 -71.70930 35029 ft 464 kts 117°
2026-05-07 01:55 2.68545 -71.65235 35035 ft 465 kts 117°
2026-05-07 01:56 2.65559 -71.59500 35033 ft 465 kts 117°
2026-05-07 01:56 2.62571 -71.53762 35026 ft 465 kts 117°
2026-05-07 01:57 2.59581 -71.48020 35036 ft 466 kts 117°
2026-05-07 01:57 2.56585 -71.42269 35026 ft 466 kts 117°
2026-05-07 01:58 2.53588 -71.36516 35037 ft 466 kts 117°
2026-05-07 01:58 2.50589 -71.30760 35032 ft 467 kts 117°
2026-05-07 01:59 2.47587 -71.25000 35026 ft 467 kts 117°
2026-05-07 01:59 2.44583 -71.19236 35031 ft 467 kts 117°
2026-05-07 02:00 2.41580 -71.13476 35028 ft 467 kts 117°
2026-05-07 02:00 2.38576 -71.07714 35039 ft 467 kts 117°
2026-05-07 02:01 2.35576 -71.01958 35023 ft 466 kts 117°
2026-05-07 02:01 2.32576 -70.96201 35027 ft 466 kts 117°
2026-05-07 02:02 2.29597 -70.90489 35027 ft 466 kts 117°
2026-05-07 02:02 2.26586 -70.84750 35027 ft 466 kts 118°
2026-05-07 02:03 2.23568 -70.79020 35038 ft 466 kts 118°
2026-05-07 02:03 2.20551 -70.73288 35027 ft 466 kts 118°
2026-05-07 02:04 2.17537 -70.67559 35028 ft 466 kts 118°
2026-05-07 02:04 2.14523 -70.61828 35034 ft 466 kts 118°
2026-05-07 02:05 2.11506 -70.56090 35035 ft 466 kts 118°
2026-05-07 02:05 2.08487 -70.50352 35025 ft 467 kts 118°
2026-05-07 02:06 2.05462 -70.44603 35038 ft 467 kts 118°
2026-05-07 02:06 2.02436 -70.38851 35036 ft 468 kts 118°
2026-05-07 02:07 1.99418 -70.33116 35033 ft 469 kts 118°
2026-05-07 02:07 1.94855 -70.24444 35036 ft 470 kts 118°
2026-05-07 02:08 1.91809 -70.18657 35034 ft 471 kts 117°
2026-05-07 02:08 1.88758 -70.12862 35033 ft 471 kts 117°
2026-05-07 02:09 1.85710 -70.07071 35043 ft 470 kts 117°
2026-05-07 02:09 1.82663 -70.01283 35034 ft 470 kts 117°
2026-05-07 02:10 1.79619 -69.95502 35039 ft 469 kts 117°
2026-05-07 02:10 1.76584 -69.89738 35041 ft 468 kts 117°
2026-05-07 02:11 1.74044 -69.84912 35048 ft 467 kts 117°
2026-05-07 02:11 1.71024 -69.79177 35031 ft 465 kts 117°
2026-05-07 02:12 1.68034 -69.73449 35028 ft 463 kts 117°
2026-05-07 02:12 1.65096 -69.67738 35034 ft 461 kts 117°
2026-05-07 02:13 1.62168 -69.62042 35032 ft 460 kts 117°
2026-05-07 02:13 1.59244 -69.56363 35036 ft 459 kts 117°
2026-05-07 02:14 1.56323 -69.50697 35039 ft 459 kts 117°
2026-05-07 02:14 1.53400 -69.45027 35046 ft 459 kts 117°
2026-05-07 02:15 1.50496 -69.39396 35039 ft 460 kts 117°
2026-05-07 02:15 1.47564 -69.33710 35033 ft 461 kts 117°
2026-05-07 02:16 1.44626 -69.28014 35044 ft 462 kts 117°
2026-05-07 02:16 1.41682 -69.22305 35037 ft 463 kts 117°
2026-05-07 02:17 1.38729 -69.16580 35049 ft 464 kts 117°
2026-05-07 02:17 1.35772 -69.10848 35040 ft 464 kts 117°
2026-05-07 02:18 1.32809 -69.05105 35044 ft 465 kts 117°
2026-05-07 02:18 1.29846 -68.99361 35047 ft 465 kts 117°
2026-05-07 02:19 1.26882 -68.93616 35041 ft 465 kts 117°
2026-05-07 02:19 1.23920 -68.87875 35032 ft 465 kts 117°
2026-05-07 02:20 1.20961 -68.82141 35036 ft 464 kts 117°
2026-05-07 02:20 1.18001 -68.76404 35034 ft 464 kts 117°
2026-05-07 02:21 1.15045 -68.70678 35039 ft 464 kts 117°
2026-05-07 02:21 1.12091 -68.64955 35037 ft 463 kts 117°
2026-05-07 02:22 1.09138 -68.59233 35038 ft 463 kts 117°
2026-05-07 02:22 1.06186 -68.53513 35041 ft 463 kts 117°
2026-05-07 02:23 1.03236 -68.47798 35043 ft 463 kts 117°
2026-05-07 02:23 1.00284 -68.42080 35033 ft 462 kts 117°
2026-05-07 02:24 0.97354 -68.36404 35030 ft 462 kts 117°
2026-05-07 02:24 0.94408 -68.30697 35039 ft 462 kts 117°
2026-05-07 02:25 0.91460 -68.24989 35034 ft 462 kts 117°
2026-05-07 02:25 0.88515 -68.19285 35038 ft 462 kts 117°
2026-05-07 02:26 0.85572 -68.13585 35033 ft 461 kts 117°
2026-05-07 02:26 0.82636 -68.07898 35032 ft 460 kts 117°
2026-05-07 02:27 0.79709 -68.02231 35035 ft 458 kts 117°
2026-05-07 02:27 0.76788 -67.96573 35031 ft 457 kts 117°
2026-05-07 02:28 0.73896 -67.90973 35035 ft 456 kts 117°
2026-05-07 02:28 0.70985 -67.85337 35037 ft 456 kts 117°
2026-05-07 02:29 0.68077 -67.79707 35026 ft 456 kts 117°
2026-05-07 02:29 0.65165 -67.74069 35032 ft 457 kts 117°
2026-05-07 02:30 0.62246 -67.68417 35034 ft 458 kts 117°
2026-05-07 02:30 0.59319 -67.62749 35037 ft 460 kts 117°
2026-05-07 02:31 0.56380 -67.57060 35031 ft 461 kts 117°
2026-05-07 02:31 0.53433 -67.51355 35032 ft 463 kts 117°
2026-05-07 02:32 0.50496 -67.45669 35032 ft 464 kts 117°
2026-05-07 02:32 0.47536 -67.39939 35026 ft 465 kts 117°
2026-05-07 02:33 0.44570 -67.34196 35032 ft 465 kts 117°
2026-05-07 02:33 0.41602 -67.28450 35033 ft 466 kts 117°
2026-05-07 02:34 0.38631 -67.22698 35034 ft 465 kts 117°
2026-05-07 02:34 0.35664 -67.16953 35030 ft 465 kts 117°
2026-05-07 02:35 0.32699 -67.11215 35026 ft 464 kts 117°
2026-05-07 02:35 0.29735 -67.05487 35029 ft 464 kts 117°
2026-05-07 02:36 0.26770 -66.99760 35029 ft 464 kts 117°
2026-05-07 02:36 0.23810 -66.94040 35034 ft 463 kts 117°
2026-05-07 02:37 0.20855 -66.88329 35031 ft 463 kts 117°
2026-05-07 02:37 0.17901 -66.82620 35030 ft 462 kts 117°
2026-05-07 02:38 0.14952 -66.76921 35032 ft 461 kts 117°
2026-05-07 02:38 0.12007 -66.71230 35026 ft 461 kts 117°
2026-05-07 02:39 0.09064 -66.65542 35032 ft 460 kts 117°
2026-05-07 02:39 0.06124 -66.59861 35029 ft 460 kts 117°
2026-05-07 02:40 0.03186 -66.54182 35026 ft 460 kts 117°
2026-05-07 02:40 0.00249 -66.48505 35032 ft 460 kts 117°
2026-05-07 02:41 -0.02692 -66.42822 35034 ft 460 kts 117°
2026-05-07 02:41 -0.05636 -66.37130 35028 ft 461 kts 117°
2026-05-07 02:42 -0.08581 -66.31439 35034 ft 461 kts 117°
2026-05-07 02:42 -0.11527 -66.25743 35035 ft 462 kts 117°
2026-05-07 02:43 -0.14476 -66.20044 35034 ft 462 kts 117°
2026-05-07 02:43 -0.17405 -66.14374 35036 ft 462 kts 117°
2026-05-07 02:44 -0.20353 -66.08667 35033 ft 462 kts 117°
2026-05-07 02:44 -0.23302 -66.02956 35034 ft 463 kts 117°
2026-05-07 02:45 -0.26251 -65.97246 35029 ft 463 kts 117°
2026-05-07 02:45 -0.29202 -65.91531 35030 ft 463 kts 117°
2026-05-07 02:46 -0.32154 -65.85816 35028 ft 463 kts 117°
2026-05-07 02:46 -0.35103 -65.80104 35027 ft 463 kts 117°
2026-05-07 02:47 -0.38055 -65.74388 35028 ft 463 kts 117°
2026-05-07 02:47 -0.41003 -65.68677 35027 ft 463 kts 117°
2026-05-07 02:48 -0.43953 -65.62969 35030 ft 462 kts 117°
2026-05-07 02:48 -0.46902 -65.57260 35026 ft 462 kts 117°
2026-05-07 02:49 -0.49855 -65.51542 35031 ft 463 kts 117°
2026-05-07 02:49 -0.52808 -65.45822 35028 ft 463 kts 117°
2026-05-07 02:50 -0.55761 -65.40103 35027 ft 463 kts 117°
2026-05-07 02:50 -0.58712 -65.34381 35028 ft 463 kts 117°
2026-05-07 02:51 -0.61662 -65.28654 35034 ft 464 kts 117°
2026-05-07 02:51 -0.64614 -65.22922 35032 ft 464 kts 117°
2026-05-07 02:52 -0.67575 -65.17182 35034 ft 465 kts 118°
2026-05-07 02:52 -0.70649 -65.11499 35034 ft 465 kts 119°
2026-05-07 02:53 -0.73761 -65.05873 35029 ft 466 kts 119°
2026-05-07 02:53 -0.76907 -65.00164 35037 ft 466 kts 118°
2026-05-07 02:54 -0.80024 -64.94480 35023 ft 467 kts 118°
2026-05-07 02:54 -0.83142 -64.88782 35035 ft 467 kts 118°
2026-05-07 02:55 -0.85734 -64.84042 35033 ft 468 kts 118°
2026-05-07 02:55 -0.88860 -64.78328 35034 ft 469 kts 118°
2026-05-07 02:56 -0.91993 -64.72602 35037 ft 470 kts 118°
2026-05-07 02:56 -0.95127 -64.66873 35030 ft 470 kts 118°
2026-05-07 02:57 -0.98265 -64.61137 35030 ft 470 kts 118°
2026-05-07 02:57 -1.01406 -64.55396 35029 ft 471 kts 118°
2026-05-07 02:58 -1.04542 -64.49662 35035 ft 470 kts 119°
2026-05-07 02:58 -1.07677 -64.43933 35028 ft 469 kts 119°
2026-05-07 02:59 -1.10804 -64.38216 35029 ft 468 kts 118°
2026-05-07 02:59 -1.13923 -64.32511 35028 ft 467 kts 118°
2026-05-07 03:00 -1.17034 -64.26824 35032 ft 466 kts 118°
2026-05-07 03:00 -1.20137 -64.21149 35027 ft 465 kts 118°
2026-05-07 03:01 -1.23235 -64.15483 35028 ft 464 kts 118°
2026-05-07 03:01 -1.26328 -64.09827 35025 ft 464 kts 118°
2026-05-07 03:02 -1.29420 -64.04172 35025 ft 464 kts 118°
2026-05-07 03:02 -1.32496 -63.98545 35032 ft 464 kts 118°
2026-05-07 03:03 -1.35592 -63.92883 35027 ft 465 kts 118°
2026-05-07 03:03 -1.38696 -63.87204 35036 ft 465 kts 119°
2026-05-07 03:04 -1.41800 -63.81526 35028 ft 466 kts 119°
2026-05-07 03:04 -1.44907 -63.75841 35028 ft 466 kts 119°
2026-05-07 03:05 -1.48013 -63.70158 35029 ft 466 kts 118°
2026-05-07 03:05 -1.51120 -63.64473 35025 ft 466 kts 118°
2026-05-07 03:06 -1.54224 -63.58792 35027 ft 465 kts 118°
2026-05-07 03:06 -1.57326 -63.53115 35028 ft 465 kts 118°
2026-05-07 03:07 -1.60422 -63.47449 35028 ft 464 kts 118°
2026-05-07 03:07 -1.63513 -63.41789 35028 ft 464 kts 118°
2026-05-07 03:08 -1.66603 -63.36133 35030 ft 463 kts 118°
2026-05-07 03:08 -1.69686 -63.30487 35025 ft 463 kts 118°
2026-05-07 03:09 -1.72763 -63.24853 35028 ft 462 kts 118°
2026-05-07 03:09 -1.75518 -63.19051 35034 ft 462 kts 113°
2026-05-07 03:10 -1.77977 -63.13175 35026 ft 461 kts 112°
2026-05-07 03:10 -1.80455 -63.07258 35027 ft 461 kts 113°
2026-05-07 03:11 -1.82962 -63.01354 35025 ft 461 kts 113°
2026-05-07 03:11 -1.85482 -62.95456 35028 ft 461 kts 113°
2026-05-07 03:12 -1.88004 -62.89554 35026 ft 462 kts 113°
2026-05-07 03:12 -1.90524 -62.83655 35025 ft 462 kts 113°
2026-05-07 03:13 -1.93047 -62.77746 35025 ft 462 kts 113°
2026-05-07 03:13 -1.95572 -62.71831 35027 ft 463 kts 113°
2026-05-07 03:14 -1.98100 -62.65907 35030 ft 463 kts 113°
2026-05-07 03:15 -2.01878 -62.57054 35025 ft 463 kts 113°
2026-05-07 03:15 -2.04493 -62.51164 35029 ft 463 kts 114°
2026-05-07 03:16 -2.07172 -62.45298 35025 ft 463 kts 115°
2026-05-07 03:16 -2.09843 -62.39436 35025 ft 463 kts 114°
2026-05-07 03:17 -2.12503 -62.33569 35023 ft 463 kts 114°
2026-05-07 03:17 -2.15157 -62.27700 35024 ft 463 kts 114°
2026-05-07 03:18 -2.17806 -62.21838 35023 ft 463 kts 114°
2026-05-07 03:18 -2.20456 -62.15975 35021 ft 463 kts 114°
2026-05-07 03:19 -2.23089 -62.10149 35026 ft 463 kts 114°
2026-05-07 03:19 -2.25740 -62.04283 35023 ft 463 kts 114°
2026-05-07 03:20 -2.28411 -61.98372 34370 ft 471 kts 114°
2026-05-07 03:20 -2.29755 -61.95397 33745 ft 469 kts 114°
2026-05-07 03:20 -2.31098 -61.92425 33023 ft 470 kts 114°
2026-05-07 03:20 -2.32443 -61.89446 32315 ft 470 kts 114°
2026-05-07 03:21 -2.33789 -61.86466 31593 ft 471 kts 114°
2026-05-07 03:21 -2.35137 -61.83482 30844 ft 472 kts 114°
2026-05-07 03:21 -2.36488 -61.80491 30282 ft 470 kts 114°
2026-05-07 03:21 -2.37816 -61.77552 30047 ft 458 kts 114°
2026-05-07 03:22 -2.39120 -61.74664 29523 ft 453 kts 114°
2026-05-07 03:22 -2.40409 -61.71810 28992 ft 448 kts 114°
2026-05-07 03:22 -2.41686 -61.68983 28461 ft 444 kts 114°
2026-05-07 03:22 -2.42949 -61.66184 27930 ft 440 kts 114°
2026-05-07 03:23 -2.44202 -61.63409 27412 ft 436 kts 114°
2026-05-07 03:23 -2.45444 -61.60657 26898 ft 432 kts 114°
2026-05-07 03:23 -2.46675 -61.57931 26397 ft 429 kts 114°
2026-05-07 03:23 -2.47880 -61.55261 25877 ft 425 kts 114°
2026-05-07 03:24 -2.49094 -61.52572 25365 ft 423 kts 114°
2026-05-07 03:24 -2.50300 -61.49899 24850 ft 420 kts 114°
2026-05-07 03:24 -2.51501 -61.47238 24321 ft 418 kts 114°
2026-05-07 03:24 -2.52694 -61.44594 23823 ft 416 kts 114°
2026-05-07 03:25 -2.53881 -61.41964 23245 ft 414 kts 114°
2026-05-07 03:25 -2.55062 -61.39346 22700 ft 411 kts 114°
2026-05-07 03:25 -2.56231 -61.36756 22180 ft 407 kts 114°
2026-05-07 03:25 -2.57389 -61.34189 21673 ft 403 kts 114°
2026-05-07 03:26 -2.58539 -61.31641 21177 ft 400 kts 114°
2026-05-07 03:26 -2.59676 -61.29120 20686 ft 397 kts 114°
2026-05-07 03:26 -2.60809 -61.26607 20191 ft 394 kts 114°
2026-05-07 03:26 -2.61931 -61.24120 19691 ft 392 kts 114°
2026-05-07 03:27 -2.63049 -61.21642 19195 ft 390 kts 114°
2026-05-07 03:27 -2.64160 -61.19179 18699 ft 388 kts 114°
2026-05-07 03:27 -2.65267 -61.16723 18190 ft 386 kts 114°
2026-05-07 03:27 -2.66368 -61.14282 17652 ft 384 kts 114°
2026-05-07 03:28 -2.67461 -61.11860 17163 ft 381 kts 114°
2026-05-07 03:28 -2.68544 -61.09456 16674 ft 378 kts 114°
2026-05-07 03:28 -2.69620 -61.07072 16192 ft 375 kts 113°
2026-05-07 03:28 -2.70688 -61.04703 15729 ft 372 kts 113°
2026-05-07 03:29 -2.71733 -61.02383 15256 ft 370 kts 113°
2026-05-07 03:29 -2.72788 -61.00044 14780 ft 368 kts 113°
2026-05-07 03:29 -2.73837 -60.97717 14298 ft 367 kts 113°
2026-05-07 03:29 -2.74881 -60.95399 13830 ft 365 kts 113°
2026-05-07 03:30 -2.75923 -60.93088 13305 ft 363 kts 113°
2026-05-07 03:30 -2.76957 -60.90793 12834 ft 360 kts 113°
2026-05-07 03:30 -2.77983 -60.88517 12370 ft 358 kts 113°
2026-05-07 03:30 -2.79001 -60.86256 11912 ft 355 kts 113°
2026-05-07 03:31 -2.80013 -60.84012 11467 ft 352 kts 113°
2026-05-07 03:31 -2.81014 -60.81788 11034 ft 350 kts 113°
2026-05-07 03:31 -2.81999 -60.79603 10861 ft 339 kts 113°
2026-05-07 03:31 -2.82952 -60.77489 10707 ft 328 kts 113°
2026-05-07 03:32 -2.83877 -60.75437 10558 ft 319 kts 113°
2026-05-07 03:32 -2.84773 -60.73447 10424 ft 309 kts 113°
2026-05-07 03:32 -2.85644 -60.71515 10292 ft 300 kts 113°
2026-05-07 03:32 -2.86490 -60.69636 10172 ft 292 kts 113°
2026-05-07 03:33 -2.87312 -60.67812 10050 ft 283 kts 113°
2026-05-07 03:33 -2.88115 -60.66028 9791 ft 281 kts 113°
2026-05-07 03:33 -2.88913 -60.64254 9500 ft 279 kts 113°
2026-05-07 03:33 -2.89707 -60.62492 9212 ft 277 kts 113°
2026-05-07 03:34 -2.90496 -60.60738 8908 ft 275 kts 113°
2026-05-07 03:34 -2.91280 -60.58996 8626 ft 274 kts 113°
2026-05-07 03:34 -2.92060 -60.57264 8339 ft 272 kts 113°
2026-05-07 03:34 -2.92836 -60.55541 8055 ft 271 kts 113°
2026-05-07 03:35 -2.93607 -60.53827 7765 ft 270 kts 113°
2026-05-07 03:35 -2.94376 -60.52119 7485 ft 269 kts 113°
2026-05-07 03:35 -2.95141 -60.50420 7200 ft 268 kts 113°
2026-05-07 03:35 -2.95904 -60.48725 6913 ft 267 kts 113°
2026-05-07 03:36 -2.96663 -60.47039 6644 ft 266 kts 113°
2026-05-07 03:36 -2.97421 -60.45354 6361 ft 265 kts 113°
2026-05-07 03:36 -2.98175 -60.43677 6062 ft 264 kts 113°
2026-05-07 03:36 -2.98926 -60.42009 5771 ft 263 kts 113°
2026-05-07 03:37 -2.99675 -60.40343 5485 ft 262 kts 113°
2026-05-07 03:37 -3.00422 -60.38684 5203 ft 261 kts 113°
2026-05-07 03:37 -3.01166 -60.37031 4927 ft 260 kts 113°
2026-05-07 03:37 -3.01907 -60.35383 4645 ft 259 kts 113°
2026-05-07 03:38 -3.02646 -60.33740 4361 ft 259 kts 113°
2026-05-07 03:38 -3.03380 -60.32111 4174 ft 254 kts 113°
2026-05-07 03:38 -3.03848 -60.30446 4035 ft 246 kts 94°
2026-05-07 03:38 -3.03847 -60.28769 3931 ft 237 kts 88°
2026-05-07 03:39 -3.03821 -60.27146 3839 ft 228 kts 89°
2026-05-07 03:39 -3.03817 -60.25604 3752 ft 215 kts 89°
2026-05-07 03:39 -3.03819 -60.24150 3603 ft 205 kts 89°
2026-05-07 03:39 -3.03822 -60.22739 3372 ft 201 kts 89°
2026-05-07 03:40 -3.03825 -60.21356 3110 ft 202 kts 89°
2026-05-07 03:40 -3.03828 -60.19955 2848 ft 201 kts 89°
2026-05-07 03:40 -3.03829 -60.19017 2674 ft 198 kts 89°
2026-05-07 03:40 -3.03833 -60.17222 2338 ft 192 kts 89°
2026-05-07 03:41 -3.03836 -60.15904 2097 ft 187 kts 89°
2026-05-07 03:41 -3.03839 -60.14634 1855 ft 178 kts 89°
2026-05-07 03:41 -3.03841 -60.13450 1645 ft 164 kts 89°
2026-05-07 03:41 -3.03843 -60.12361 1468 ft 154 kts 89°
2026-05-07 03:42 -3.03845 -60.11284 1245 ft 154 kts 89°
2026-05-07 03:42 -3.03848 -60.10223 1048 ft 151 kts 90°
2026-05-07 03:42 -3.03850 -60.09181 868 ft 149 kts 90°
2026-05-07 03:42 -3.03851 -60.08498 740 ft 147 kts 90°
2026-05-07 03:43 -3.03854 -60.07152 492 ft 143 kts 89°
2026-05-07 03:43 -3.03854 -60.06496 363 ft 142 kts 89°
2026-05-07 03:43 -3.03856 -60.05571 294 ft 119 kts 91°
2026-05-07 03:43 -3.03859 -60.04870 297 ft 83 kts 90°
2026-05-07 03:44 -3.03859 -60.04389 300 ft 60 kts 90°
2026-05-07 03:44 -3.03860 -60.04032 300 ft 43 kts 90°
2026-05-07 03:44 -3.03861 -60.03844 300 ft 15 kts 85°
2026-05-07 03:44 -3.03800 -60.03771 301 ft 14 kts 17°
2026-05-07 03:45 -3.03713 -60.03801 301 ft 14 kts 312°
2026-05-07 03:45 -3.03673 -60.03883 303 ft 13 kts 290°
2026-05-07 03:45 -3.03646 -60.03968 302 ft 13 kts 284°
2026-05-07 03:45 -3.03626 -60.04053 302 ft 12 kts 282°
2026-05-07 03:46 -3.03605 -60.04134 301 ft 12 kts 286°
2026-05-07 03:46 -3.03581 -60.04214 300 ft 12 kts 288°
2026-05-07 03:46 -3.03540 -60.04281 300 ft 11 kts 309°
2026-05-07 03:46 -3.03483 -60.04334 299 ft 11 kts 326°
2026-05-07 03:47 -3.03415 -60.04368 300 ft 11 kts 341°
2026-05-07 03:47 -3.03347 -60.04396 300 ft 10 kts 323°
2026-05-07 03:47 -3.03292 -60.04440 298 ft 10 kts 337°
2026-05-07 03:47 -3.03261 -60.04449 299 ft 0 kts 348°